TimeCST,TemperatureF,Dew PointF,Humidity,Sea Level PressureIn,VisibilityMPH,Wind Direction,Wind SpeedMPH,Gust SpeedMPH,PrecipitationIn,Events,Conditions,WindDirDegrees,DateUTC
12:53 AM,28.0,25.0,88,30.22,4.0,Calm,Calm,-,N/A,,Clear,0,2013-01-08 06:53:00
1:53 AM,27.0,24.1,89,30.23,4.0,Calm,Calm,-,N/A,,Clear,0,2013-01-08 07:53:00
2:53 AM,26.1,24.1,92,30.22,3.0,Calm,Calm,-,N/A,,Clear,0,2013-01-08 08:53:00
3:53 AM,25.0,23.0,92,30.22,2.0,Calm,Calm,-,N/A,,Clear,0,2013-01-08 09:53:00
4:00 AM,24.8,21.2,86,30.21,0.8,Calm,Calm,-,N/A,,Clear,0,2013-01-08 10:00:00
4:13 AM,23.0,21.2,93,30.20,2.0,Calm,Calm,-,N/A,,Clear,0,2013-01-08 10:13:00
4:27 AM,24.8,21.2,86,30.21,4.0,Calm,Calm,-,N/A,,Clear,0,2013-01-08 10:27:00
4:53 AM,24.1,21.9,91,30.22,4.0,ESE,3.5,-,N/A,,Clear,110,2013-01-08 10:53:00
5:53 AM,25.0,21.9,88,30.24,4.0,Calm,Calm,-,N/A,,Clear,0,2013-01-08 11:53:00
6:53 AM,27.0,23.0,85,30.25,7.0,SSE,3.5,-,N/A,,Clear,160,2013-01-08 12:53:00
7:53 AM,27.0,24.1,89,30.27,5.0,Calm,Calm,-,N/A,,Clear,0,2013-01-08 13:53:00
8:53 AM,33.1,28.9,85,30.28,6.0,Calm,Calm,-,N/A,,Clear,0,2013-01-08 14:53:00
9:53 AM,39.0,30.0,70,30.27,10.0,SSE,5.8,-,N/A,,Clear,160,2013-01-08 15:53:00
10:53 AM,43.0,30.9,62,30.26,10.0,South,6.9,-,N/A,,Clear,170,2013-01-08 16:53:00
11:53 AM,46.0,32.0,58,30.23,10.0,South,9.2,-,N/A,,Clear,170,2013-01-08 17:53:00
12:53 PM,48.9,33.1,54,30.20,10.0,SSW,5.8,-,N/A,,Clear,200,2013-01-08 18:53:00
1:53 PM,50.0,35.1,57,30.19,10.0,South,6.9,-,N/A,,Clear,190,2013-01-08 19:53:00
2:53 PM,51.1,37.0,59,30.19,10.0,South,10.4,-,N/A,,Partly Cloudy,170,2013-01-08 20:53:00
3:53 PM,50.0,37.9,63,30.19,10.0,South,6.9,-,N/A,,Clear,180,2013-01-08 21:53:00
4:53 PM,46.0,37.0,71,30.19,10.0,SSE,5.8,-,N/A,,Clear,160,2013-01-08 22:53:00
5:53 PM,41.0,36.0,82,30.20,10.0,Calm,Calm,-,N/A,,Clear,0,2013-01-08 23:53:00
6:53 PM,37.0,34.0,89,30.19,10.0,SE,3.5,-,N/A,,Clear,130,2013-01-09 00:53:00
7:53 PM,39.0,34.0,82,30.20,10.0,Calm,Calm,-,N/A,,Clear,0,2013-01-09 01:53:00
8:53 PM,37.9,35.1,89,30.21,10.0,Calm,Calm,-,N/A,,Mostly Cloudy,0,2013-01-09 02:53:00
9:53 PM,39.0,35.1,86,30.19,10.0,Calm,Calm,-,N/A,,Mostly Cloudy,0,2013-01-09 03:53:00
10:53 PM,39.2,37.4,93,30.20,10.0,Calm,Calm,-,N/A,,Overcast,0,2013-01-09 04:53:00
11:53 PM,41.0,37.9,89,30.22,10.0,Calm,Calm,-,0.00,Rain,Light Rain,0,2013-01-09 05:53:00